Weather History for Sheridan, WY

Change the Weather History Date:

Monday, January 21, 2013

  Actual Average Record
Temperature  
Mean Temperature 26 °F 24 °F  
Max Temperature 37 °F 37 °F 62 °F (1981)
Min Temperature 14 °F 12 °F -31 °F (1927)
Degree Days  
Heating Degree Days 39 41  
Month to date heating degree days 856 870  
Since 1 July heating degree days 3811 4053  
Cooling Degree Days 0 0  
Month to date cooling degree days 0 0  
Year to date cooling degree days 0 0  
Moisture  
Dew Point 16 °F    
Average Humidity 72    
Maximum Humidity 92    
Minimum Humidity 52    
Precipitation  
Precipitation 0.00 in 0.02 in 0.47 in (1915)
Month to date precipitation 0.02 0.36  
Year to date precipitation 0.02 0.36  
Sea Level Pressure  
Sea Level Pressure 30.22 in    
Wind  
Wind Speed 3 mph (NNE)    
Max Wind Speed 10 mph    
Max Gust Speed 15 mph    
Visibility 10 miles    
Events      
T = Trace of Precipitation, MM = Missing Value Source: NWS Daily Summary

Daily Weather History Graph

Daily Weather History Graph

Search for Another Location

Airport:

Trip Planner

Search our weather history database for the weather conditions in past years. The results will help you decide how hot, cold, wet, or windy it might be!

Date:

Astronomy

Jan. 21, 2013 Rise Set
Actual Time 7:37 AM MST 5:01 PM MST
Civil Twilight 7:05 AM MST 5:33 PM MST
Nautical Twilight 6:29 AM MST 6:09 PM MST
Astronomical Twilight 5:55 AM MST 6:44 PM MST
Moon 12:42 PM MST 3:08 AM MST
Length of Visible Light 10h 28m
Length of Day
9h 24m
Waxing Gibbous, 75% of the Moon is Illuminated
Jan 21
Waxing Gibbous
Jan 26
Full
Feb 3
Last Quarter
Feb 10
New
Feb 17
First Quarter

Hourly Weather History & Observations

Time (MST) Temp. Windchill Dew Point Humidity Pressure Visibility Wind Dir Wind Speed Gust Speed Precip Events Conditions
12:53 AM 19.9 °F - 15.1 °F 81% 30.36 in 10.0 mi Calm Calm - N/A   Overcast
1:53 AM 19.9 °F 14.9 °F 15.1 °F 81% 30.34 in 10.0 mi ENE 3.5 mph - N/A   Overcast
2:53 AM 19.9 °F - 15.1 °F 81% 30.34 in 10.0 mi Calm Calm - N/A   Overcast
3:20 AM 19.4 °F - 15.8 °F 86% 30.15 in 10.0 mi Calm Calm - N/A   Overcast
3:53 AM 18.0 °F 8.7 °F 15.1 °F 88% 30.32 in 10.0 mi NE 6.9 mph - N/A   Mostly Cloudy
4:53 AM 15.1 °F 5.2 °F 12.9 °F 91% 30.36 in 10.0 mi WNW 6.9 mph - N/A   Partly Cloudy
5:53 AM 15.1 °F 6.4 °F 12.0 °F 88% 30.33 in 10.0 mi South 5.8 mph - N/A   Clear
6:53 AM 15.1 °F - 12.0 °F 88% 30.31 in 10.0 mi Calm Calm - N/A   Mostly Cloudy
7:53 AM 17.1 °F - 14.0 °F 88% 30.28 in 10.0 mi Calm Calm - N/A   Overcast
8:53 AM 18.0 °F 11.1 °F 15.1 °F 88% 30.29 in 10.0 mi NNE 4.6 mph - N/A   Overcast
9:53 AM 21.0 °F 16.2 °F 16.0 °F 81% 30.32 in 10.0 mi NNW 3.5 mph - N/A   Mostly Cloudy
10:53 AM 24.1 °F - 17.1 °F 75% 30.27 in 10.0 mi Calm Calm - N/A   Clear
11:53 AM 30.0 °F 24.1 °F 19.0 °F 64% 30.19 in 10.0 mi South 5.8 mph - N/A   Clear
12:53 PM 34.0 °F 28.8 °F 21.0 °F 59% 30.16 in 10.0 mi NNE 5.8 mph - N/A   Clear
1:53 PM 36.0 °F 30.3 °F 21.0 °F 55% 30.14 in 10.0 mi NNE 6.9 mph - N/A   Partly Cloudy
2:53 PM 35.1 °F 31.0 °F 21.0 °F 57% 30.13 in 10.0 mi ENE 4.6 mph - N/A   Partly Cloudy
3:53 PM 36.0 °F 33.3 °F 19.9 °F 52% 30.12 in 10.0 mi NNE 3.5 mph - N/A   Clear
4:53 PM 28.0 °F 20.8 °F 19.9 °F 72% 30.14 in 10.0 mi North 6.9 mph - N/A   Partly Cloudy
5:53 PM 24.1 °F 18.2 °F 18.0 °F 77% 30.16 in 10.0 mi NNW 4.6 mph - N/A   Clear
6:53 PM 21.9 °F 14.5 °F 17.1 °F 82% 30.16 in 10.0 mi SSW 5.8 mph - N/A   Clear
7:53 PM 21.0 °F - 16.0 °F 81% 30.14 in 10.0 mi Calm Calm - N/A   Clear
8:53 PM 19.9 °F - 15.1 °F 81% 30.14 in 10.0 mi Calm Calm - N/A   Clear
9:53 PM 19.0 °F - 15.1 °F 85% 30.14 in 10.0 mi Calm Calm - N/A   Clear
10:53 PM 18.0 °F - 14.0 °F 84% 30.13 in 10.0 mi Calm Calm - N/A   Clear
11:53 PM 17.1 °F - 12.0 °F 81% 30.11 in 10.0 mi Calm Calm - N/A   Clear